Location: Hac?musa Deresi
(39.1694°N, 32.2508°E)
Time: 10:38:08
(UTC+00:00)

SL-8 Rocket - Pass Details

Date: 22 April 2026
Orbit: 957 x 989 km, 82.9° (Epoch: 20 May)

Event Time Altitude Azimuth Distance (km) Brightness Sun altitude
Rises 16:53:59 0° 176° (S) 3,658 6.8 -4.3°
Reaches altitude 10° 16:56:29 10° 174° (S) 2,719 6.1 -4.8°
Maximum altitude 17:02:39 66° 93° (E) 1,068 4.0 -5.9°
Drops below altitude 10° 17:08:54 10° 13° (NNE) 2,753 6.5 -7.0°
Sets 17:11:27 0° 11° (N) 3,707 7.2 -7.5°
